sat.trackr.live / text

‹ back to catalog

STARLINK-33841

NORAD 63771 · 2025-089W

PAYLOAD ACTIVE UNKNOWN

§ Identity

Operator
Country
US
Launch date
2025-04-29
Launch site
AFETR
Launch vehicle
Mass (kg)
RCS (m²)

Purposes: comms

External: N2YO · Heavens-Above · Gunter

§ Orbital elements

Epoch: 2026-05-24T21:28:05.658816Z

Period
94.27 min
Inclination
43.0028°
Eccentricity
0.0001859
Mean motion
15.27604310 rev/d
Perigee alt
481.7 km
Apogee alt
484.3 km
Semi-major
6,861.1 km
B*
6.9987e-4
RAAN
334.7338°
Arg perigee
282.0951°
Mean anomaly
77.9692°
Rev number
6,056

§ Raw data

STARLINK-338411 63771U 25089W   26144.89450994  .00019061  00000+0  69987-3 0  99912 63771  43.0028 334.7338 0001859 282.0951  77.9692 15.27604310 60560

JSON: /api/v1/satellites/63771 · /tle

For live sub-satellite position, see the globe view (requires WebGL).

§ Visibility from observer

Set your observer location to see the next 7 days of passes ≥ 10°. The values pass through the URL so the page stays shareable.

No JS? Fill the form by hand. The geolocation button needs JavaScript.